Ahmadabad, India

9:12 PM IST on January 22, 2017 (GMT +0530)
Ahmedabad

Weather History for VAAH - September, 2012

Change the Weather History Date:

Sunday, September 23, 2012

  Actual Average Record
Temperature  
Mean Temperature 84 °F -  
Max Temperature 90 °F 91 °F 102 °F (2001)
Min Temperature 77 °F 71 °F 75 °F (1996)
Cooling Degree Days 18    
Growing Degree Days 34 (Base 50)    
Moisture  
Dew Point 75 °F    
Average Humidity 72    
Maximum Humidity 86    
Minimum Humidity 57    
Precipitation  
Precipitation 0.00 in 0.05 in - ()
Sea Level Pressure  
Sea Level Pressure 29.77 in    
Wind  
Wind Speed 2 mph ()    
Max Wind Speed 7 mph    
Max Gust Speed -    
Visibility 2.3 miles    
Events Thunderstorm    
Averages and records for this station are not official NWS values.
T = Trace of Precipitation, MM = Missing Value Source: Averaged Metar Reports

Daily Weather History Graph

Daily Weather History Graph

Search for Another Location

Airport or City:

Trip Planner

Search our weather history database for the weather conditions in past years. The results will help you decide how hot, cold, wet, or windy it might be!

Date:

Astronomy

Sep. 23, 2012 Rise Set
Actual Time 6:28 AM IST 6:34 PM IST
Civil Twilight 6:06 AM IST 6:57 PM IST
Nautical Twilight 5:39 AM IST 7:23 PM IST
Astronomical Twilight 5:13 AM IST 7:49 PM IST
Moon 1:36 PM IST (9/23) No Moon Set
Length of Visible Light 12h 51m
Length of Day
12h 06m
First Quarter, 55% of the Moon is Illuminated
Sep 23
First Quarter
Sep 30
Full
Oct 8
Last Quarter
Oct 15
New
Oct 22
First Quarter

Hourly Weather History & Observations

Time (IST) Temp. Heat Index Dew Point Humidity Pressure Visibility Wind Dir Wind Speed Gust Speed Precip Events Conditions
12:10 AM 80.6 °F 84.6 °F 71.6 °F 74% 29.77 in 1.9 mi Calm Calm - N/A   Haze
12:40 AM 80.6 °F 84.6 °F 71.6 °F 74% 29.77 in 1.9 mi Calm Calm - N/A   Haze
1:10 AM 80.6 °F 84.6 °F 71.6 °F 74% 29.77 in 1.9 mi Calm Calm - N/A   Haze
1:40 AM 80.6 °F 84.6 °F 71.6 °F 74% 29.77 in 1.9 mi Calm Calm - N/A   Haze
2:10 AM 80.6 °F 84.6 °F 71.6 °F 74% 29.77 in 1.9 mi Calm Calm - N/A   Haze
2:30 AM 80 °F - 76 °F 84% 29.79 in 1 mi SW 3.5 mph - -   Haze
2:40 AM 80.6 °F 84.6 °F 71.6 °F 74% 29.74 in 1.9 mi Calm Calm - N/A   Haze
3:10 AM 80.6 °F 84.6 °F 71.6 °F 74% 29.74 in 1.9 mi Calm Calm - N/A   Haze
3:40 AM 80.6 °F 84.6 °F 71.6 °F 74% 29.74 in 1.9 mi Calm Calm - N/A   Haze
4:40 AM 80.6 °F 84.6 °F 71.6 °F 74% 29.77 in 1.9 mi Calm Calm - N/A   Haze
5:10 AM 80.6 °F 84.6 °F 71.6 °F 74% 29.77 in 1.9 mi Calm Calm - N/A   Haze
5:30 AM 80 °F - 76 °F 86% 29.78 in 1 mi West 3.5 mph - -   Haze
5:40 AM 80.6 °F 84.6 °F 71.6 °F 74% 29.77 in 1.9 mi Calm Calm - N/A   Haze
6:10 AM 80.6 °F 84.6 °F 71.6 °F 74% 29.80 in 1.9 mi Calm Calm - N/A   Haze
6:40 AM 80.6 °F 84.6 °F 71.6 °F 74% 29.80 in 1.9 mi Calm Calm - N/A   Haze
7:10 AM 80.6 °F 84.6 °F 71.6 °F 74% 29.80 in 1.9 mi Calm Calm - N/A   Haze
8:10 AM 82.4 °F 87.2 °F 71.6 °F 70% 29.83 in 2.2 mi WNW 4.6 mph - N/A   Haze
8:30 AM 81 °F - 76 °F 81% 29.83 in 2 mi West 4.6 mph - -   Haze
8:40 AM 82.4 °F 87.2 °F 71.6 °F 70% 29.83 in 2.5 mi WNW 4.6 mph - N/A   Haze
10:10 AM 86.0 °F 95.1 °F 75.2 °F 70% 29.83 in 3.1 mi NW 6.9 mph - N/A   Haze
10:40 AM 87.8 °F 97.6 °F 75.2 °F 66% 29.83 in 3.1 mi NW 6.9 mph - N/A   Haze
11:10 AM 87.8 °F 99.7 °F 77.0 °F 70% 29.83 in 3.1 mi WNW 6.9 mph - N/A   Haze
11:30 AM 86 °F - 76 °F 66% 29.83 in 2 mi NW 4.6 mph - -   Haze
11:40 AM 87.8 °F 99.7 °F 77.0 °F 70% 29.80 in 3.1 mi NNW 6.9 mph - N/A   Haze
12:40 PM 89.6 °F 104.7 °F 78.8 °F 70% 29.77 in 3.1 mi NW 4.6 mph - N/A   Haze
1:10 PM 91.4 °F 111.0 °F 80.6 °F 71% 29.77 in 3.1 mi NW 6.9 mph - N/A   Haze
2:10 PM 91.4 °F 111.0 °F 80.6 °F 71% 29.74 in 3.1 mi NNW 3.5 mph - N/A   Haze
2:30 PM 89 °F - 76 °F 57% 29.75 in 2 mi NW 2.3 mph - -   Haze
2:40 PM 91.4 °F 111.0 °F 80.6 °F 71% 29.71 in 3.1 mi North 3.5 mph - N/A   Haze
3:10 PM 93.2 °F 117.1 °F 82.4 °F 71% 29.71 in 3.1 mi WNW 5.8 mph - N/A   Haze
4:10 PM 93.2 °F 117.1 °F 82.4 °F 71% 29.71 in 3.1 mi WNW 5.8 mph - N/A   Haze
4:40 PM 93.2 °F 117.1 °F 82.4 °F 71% 29.71 in 3.1 mi WNW 3.5 mph - N/A   Haze
5:10 PM 89.6 °F 108.2 °F 80.6 °F 75% 29.71 in 3.1 mi NNW 3.5 mph - N/A   Haze
5:30 PM 88 °F - 79 °F 69% 29.73 in 2 mi WNW 2.3 mph - - Thunderstorm Thunderstorm
6:10 PM 89.6 °F 104.7 °F 78.8 °F 70% 29.71 in 2.5 mi West 6.9 mph - N/A   Haze
6:40 PM 86.0 °F 95.1 °F 75.2 °F 70% 29.74 in 2.5 mi SW 6.9 mph - N/A   Haze
7:10 PM 84.2 °F 90.9 °F 73.4 °F 70% 29.74 in 2.2 mi SW 6.9 mph - N/A   Haze
7:40 PM 84.2 °F 90.9 °F 73.4 °F 70% 29.74 in 2.2 mi SW 6.9 mph - N/A   Haze
8:10 PM 84.2 °F 90.9 °F 73.4 °F 70% 29.74 in 2.2 mi SSW 5.8 mph - N/A   Haze
8:30 PM 83 °F - 77 °F 77% 29.77 in 2 mi SW 3.5 mph - -   Haze
8:40 PM 84.2 °F 90.9 °F 73.4 °F 70% 29.77 in 2.2 mi SSW 3.5 mph - N/A   Haze
9:10 PM 84.2 °F 90.9 °F 73.4 °F 70% 29.77 in 2.2 mi Calm Calm - N/A   Haze
9:40 PM 84.2 °F 90.9 °F 73.4 °F 70% 29.77 in 2.2 mi Calm Calm - N/A   Haze
10:10 PM 84.2 °F 90.9 °F 73.4 °F 70% 29.77 in 2.2 mi Calm Calm - N/A   Haze
10:40 PM 84.2 °F 90.9 °F 73.4 °F 70% 29.77 in 2.2 mi SSW 3.5 mph - N/A   Haze
11:10 PM 84.2 °F 90.9 °F 73.4 °F 70% 29.77 in 2.2 mi Variable 2.3 mph - N/A   Haze
11:30 PM 82 °F - 76 °F 79% 29.80 in 2 mi SSW 3.5 mph - -   Haze